Situs API Video Gratis Terbaik

AVDBAPI.COM

Cari katalog, periksa data, dan salin URL API bersih dari satu dasbor cepat.

Telegram Gabung komunitas Telegram untuk update!
Today
64
Pembaruan Hari Ini
Censored
313974
Video Disensor
Total
474107
Total Video

Daftar Video

Data terbaru diurutkan berdasarkan waktu pembaruan.

ID Nama CODE Kategori Diperbarui API
268471 101719-01 Aku Dasar Mesum! Rasanya Enak Banget Setelah Dicoret 101719-01 Tanpa sensor 2025-08-29 13:43:30 API
268470 K1435 Wanita Mangsa Rio Kobayashi K1435 Tanpa sensor 2025-08-29 13:43:20 API
268469 H0930-KI200418 Atraksi Masturbasi Selfie yang Menggairahkan H0930-KI200418 Tanpa sensor 2025-08-29 13:43:10 API
268468 FC2-PPV-4463099 Promo 1980pt cuma 3 hari! Seri Adegan Panas Wanita Dewasa: 3 Gadis Cantik! Video Underground Terbaru Langsung Rilis! FC2-PPV-4463099 Tanpa sensor 2025-08-29 13:43:00 API
268467 H4610-ORI1747 Ayaka Kogiri, 21 Tahun H4610-ORI1747 Tanpa sensor 2025-08-29 13:42:50 API
268466 061920-001 Pelecehan di Kereta - Wanita Kantoran Cantik yang Menunggu Dilecehkan 061920-001 Tanpa sensor 2025-08-29 13:42:40 API
268465 082318_733 Kegilaan Facesitting Deluxe 2 082318_733 Tanpa sensor 2025-08-29 13:42:30 API
268464 H0930-KI200419 Tomomi Komine Wanita Cantik Usia 28 Tahun H0930-KI200419 Tanpa sensor 2025-08-29 13:42:20 API
268463 HEYZO-2259 Wanita matang jalang penggila seks dan aksi 4P gila HEYZO-2259 Tanpa sensor 2025-08-29 13:42:10 API
268462 031619-051 Buku Foto Memek Istri Orang 111 031619-051 Tanpa sensor 2025-08-29 13:42:00 API
268460 062020-001 Debut Vol.59 ~ Influencer Delivery Health yang Hot, Siap Langsung Dikentot ~ Miyu Ohno 062020-001 Tanpa sensor 2025-08-29 13:41:40 API
268459 H4610-KI210130 Eri Hamada, Gadis 22 Tahun H4610-KI210130 Tanpa sensor 2025-08-29 13:41:30 API
268458 101919-01 Coba Pegang Kontolku 101919-01 Tanpa sensor 2025-08-29 13:41:20 API
268457 K1436 Wanita Mangsa - K1436 Tanpa sensor 2025-08-29 13:41:10 API
268456 031619-052 052 Liburan Selingkuh di Onsen yang Menggairahkan 031619-052 Tanpa sensor 2025-08-29 13:41:00 API
268455 H0930-KI200421 Rie Takeuchi Wanita Seksi Usia 34 Tahun H0930-KI200421 Tanpa sensor 2025-08-29 13:40:50 API
268454 082518_734 Koleksi Model Seksi Juli Kisaragi 082518_734 Tanpa sensor 2025-08-29 13:40:40 API
268453 HEYZO-2260 Kanda Luna Cium Tangan yang Menggoda HEYZO-2260 Tanpa sensor 2025-08-29 13:40:30 API
268452 H4610-KI210202 Gadis 21 Tahun Emi Hasegawa H4610-KI210202 Tanpa sensor 2025-08-29 13:40:20 API
268451 062320-001 001 Seks Basah Kuyup Chihiro Dilumuri Sperma yang Terus Mengalir Tanpa Henti 062320-001 Tanpa sensor 2025-08-29 13:40:10 API
268450 FC2-PPV-4463190 Bayar hutang kok royal banget! Istri polos yang menggemaskan tak sengaja melihat pekerjaan rahasia suaminya, lalu malah ditelan habis oleh Yogari! FC2-PPV-4463190 Tanpa sensor 2025-08-29 13:40:00 API
268448 102219-01 Aku Gak Bisa Lupa Rasa Nikmat Pas Dicentot Terakhir Kali 102219-01 Tanpa sensor 2025-08-29 13:39:40 API
268447 HEYZO-2290 Yayoi [Yayoi] Main Igu-play, kaget banget suaranya mirip banget suara anime! HEYZO-2290 Tanpa sensor 2025-08-29 13:39:30 API
268446 031919-054 Aku Ingin Menikah Lagi! ~ Wanita Matang Cantik yang Ingin Jadi Pelacur di Atas Ranjang ~ 031919-054 Tanpa sensor 2025-08-29 13:39:20 API
268445 PONDO-082818_735 Tokimeki -Si Langsing Seksi dengan Tahi Lalat Menawan di Sekitar Matanya- PONDO-082818_735 Tanpa sensor 2025-08-29 13:39:10 API
268444 062420-001 Reika Ayano, tubuh istri suci yang basah kuyup karena bos suaminya 062420-001 Tanpa sensor 2025-08-29 13:39:00 API
268442 H0930-KI200423 Chieko Hisai Wanita Matang 51 Tahun H0930-KI200423 Tanpa sensor 2025-08-29 13:38:40 API
268441 102419-01 Banjir Sperma di Dalam Vagina Anak Perempuan yang Ingin Melepaskan Nafsunya 102419-01 Tanpa sensor 2025-08-29 13:38:30 API
268439 H4610-KI210207 Akemi Kawase Gadis 25 Tahun H4610-KI210207 Tanpa sensor 2025-08-29 13:38:10 API
268438 FC2-PPV-4464375 Guru Jalang Chihiro vol.1 FC2-PPV-4464375 Tanpa sensor 2025-08-29 13:38:00 API
268437 031919-053 053 Akiko Narita Keluarin Sperma di Payudara Istrinya 031919-053 Tanpa sensor 2025-08-29 13:37:50 API
268436 062520-001 Antologi Aokan: Maya Kawamura, Saya Tachibana, Maki Hojo, Mayuka Akimoto, Eri Makino 062520-001 Tanpa sensor 2025-08-29 13:37:40 API
268435 082818_735 Tokimeki ~ Si Cantik Ramping dengan Tahi Lalat Seksi di Sekitar Matanya ~ 082818_735 Tanpa sensor 2025-08-29 13:37:30 API
268434 H0930-KI200428 Kazuko Shimatani 36 Tahun H0930-KI200428 Tanpa sensor 2025-08-29 13:37:20 API
268433 HEYZO-2261 Netri negosiasi fisik dengan cantik cup F menggunakan sabun mewah HEYZO-2261 Tanpa sensor 2025-08-29 13:37:10 API
268432 K1438 Wanita Mangsa K1438 Tanpa sensor 2025-08-29 13:37:00 API
268431 FC2-PPV-4460542 Hasil negosiasi besar dengan cewek nenen gede cup F adalah lari.. Sangat erotis sampai bikin gila FC2-PPV-4460542 Tanpa sensor 2025-08-29 13:36:50 API
268430 032119-055 055 Ero yang menggoda adalah wanita matang yang menawan dan dikocok habis 032119-055 Tanpa sensor 2025-08-29 13:36:40 API
268429 102619-01 Wawancara Amatir ~ Terima Kasih, Hanya di Sini Tempatnya ~ 102619-01 Tanpa sensor 2025-08-29 13:36:30 API
268428 H4610-KI210206 Gold Pack: Gadis 20 Tahun Yang Menggoda H4610-KI210206 Tanpa sensor 2025-08-29 13:36:20 API
268427 H0930-ORI1568 Ryoko Wakayama Wanita 33 Tahun H0930-ORI1568 Tanpa sensor 2025-08-29 13:36:10 API
268425 083018_736 Wajah siang hari seorang istri yang penuh nafsu dan tak bisa diceritakan pada siapapun 083018_736 Tanpa sensor 2025-08-29 13:35:50 API
268424 HEYZO-2262 Nonstop!! Surga Injeksi - Semprotkan Sperma Sebanyak HEYZO-2262 Tanpa sensor 2025-08-29 13:35:40 API
268422 FC2-PPV-4464012 Simpanan Muda 19 Tahun, Sperma Pertama yang Hakiki! Main "Container Yoko Sex" dan "Ocean Cart" Cuma Berjarak 10cm dari Orang Lewat FC2-PPV-4464012 Tanpa sensor 2025-08-29 13:35:20 API
268421 032219-056 056 Single Mother Sensitif Anal Terangsang Lewat Anus 032219-056 Tanpa sensor 2025-08-29 13:35:10 API
268420 H0930-KI200426 Wanita Seksi 39 Tahun Yukari Yoshizaki H0930-KI200426 Tanpa sensor 2025-08-29 13:35:00 API
268419 H4610-TK0029 Kiyoka Matsuura, Gadis 20 Tahun yang Seksi H4610-TK0029 Tanpa sensor 2025-08-29 13:34:50 API
268418 062620-001 Si Cantik Berbalut Jeans Vol.29 Sumire Mika 062620-001 Tanpa sensor 2025-08-29 13:34:40 API
268417 K1439 Wanita Mangsa Miho Hayakawa K1439 Tanpa sensor 2025-08-29 13:34:30 API
268415 103119-01 Setelah kencan panas, banjir sperma disemprotkan ke dalam vagina cewek polos 103119-01 Tanpa sensor 2025-08-29 13:34:10 API